EW7909 Weather Reports


Display with metric or nautical units.
time (UTC)temp
F
wind
direction
speed
MPH
gust
MPH
rain 1hr
in
rain 24hr
in
rain mn
in
humidity
%
barometer
mb
20260506203042 48 234 0.0 0.0 0.00 0.33 0.33 1 1009.2
20260506201538 49 234 0.0 0.0 0.00 0.33 0.33 4 1008.9
20260506200034 49 234 0.0 1.0 0.00 0.33 0.33 13 1008.7
20260506194535 50 234 0.0 0.0 0.00 0.33 0.33 21 1008.5
20260506193130 50 234 0.0 0.0 0.00 0.33 0.33 29 1008.3
20260506191550 51 234 0.0 0.0 0.00 0.33 0.33 35 1008.1
20260506190007 52 234 0.0 1.0 0.00 0.33 0.33 43 1007.9
20260506184557 53 234 0.0 1.0 0.00 0.33 0.33 55 1007.8
20260506183017 53 239 4.0 9.0 0.00 0.33 0.33 66 1007.7
20260506181606 54 236 6.0 10.0 0.00 0.33 0.33 68 1007.6
20260506180022 54 230 8.0 10.0 0.00 0.33 0.33 69 1007.5
20260506174616 55 248 8.0 16.0 0.00 0.33 0.33 69 1007.4
20260506173032 55 219 7.0 12.0 0.00 0.33 0.33 69 1007.3
20260506171626 55 251 13.0 19.0 0.00 0.33 0.33 68 1007.0
20260506170047 55 231 10.0 18.0 0.00 0.33 0.33 68 1006.9
20260506164623 55 241 12.0 19.0 0.00 0.33 0.33 67 1007.0
20260506163042 55 232 11.0 17.0 0.00 0.33 0.33 68 1007.1
20260506161618 56 238 15.0 22.0 0.00 0.33 0.33 67 1007.1
20260506160105 57 261 13.0 24.0 0.00 0.33 0.33 65 1007.0
20260506154516 55 240 10.0 15.0 0.00 0.33 0.33 68 1007.2
20260506153108 56 248 8.0 18.0 0.00 0.33 0.33 68 1007.2
20260506151528 55 284 9.0 18.0 0.00 0.33 0.33 64 1007.3
20260506150126 54 214 9.0 17.0 0.00 0.33 0.33 56 1007.3
20260506144559 54 248 10.0 19.0 0.00 0.33 0.33 58 1007.4
20260506143128 53 226 14.0 21.0 0.00 0.33 0.33 61 1007.4
20260506141542 53 267 9.0 19.0 0.00 0.33 0.33 52 1007.3
20260506140132 53 232 16.0 21.0 0.00 0.33 0.33 58 1007.5
20260506134539 53 232 14.0 22.0 0.00 0.34 0.33 55 1007.3
20260506133142 54 231 13.0 18.0 0.00 0.34 0.33 42 1007.3
20260506131556 54 250 9.0 14.0 0.00 0.34 0.33 39 1007.4
20260506130006 54 244 11.0 18.0 0.00 0.34 0.33 37 1007.2
20260506124605 54 241 12.0 19.0 0.00 0.36 0.33 48 1007.2
20260506123028 53 240 14.0 20.0 0.00 0.36 0.33 54 1007.1
20260506121609 53 240 10.0 18.0 0.00 0.36 0.33 43 1007.0
20260506120025 53 225 12.0 21.0 0.00 0.36 0.33 42 1006.8
20260506114615 53 257 11.0 19.0 0.00 0.36 0.33 18 1006.7
20260506113038 53 220 14.0 22.0 0.02 0.36 0.33 2 1006.7
20260506111623 52 240 13.0 20.0 0.06 0.36 0.33 1 1006.8
20260506110043 51 245 13.0 20.0 0.11 0.36 0.33 1 1006.6
20260506104632 50 258 10.0 17.0 0.16 0.36 0.33 1 1006.7
20260506103102 50 238 12.0 17.0 0.20 0.35 0.31 1 1006.6
20260506101505 51 246 5.0 12.0 0.19 0.30 0.27 1 1006.6
20260506100106 51 246 5.0 12.0 0.17 0.25 0.22 1 1006.4
20260506094502 51 223 8.0 14.0 0.14 0.20 0.16 1 1006.3
20260506093054 51 238 8.0 11.0 0.11 0.16 0.12 1 1006.0
20260506091508 52 252 6.0 10.0 0.08 0.12 0.08 1 1005.6
20260506090057 52 242 3.0 7.0 0.05 0.09 0.05 1 1005.5
20260506084517 53 249 3.0 7.0 0.02 0.06 0.02 1 1005.2
20260506083117 53 208 2.0 4.0 0.01 0.05 0.01 1 1005.0
20260506081523 53 207 1.0 3.0 0.00 0.04 0.00 1 1004.7
20260506080121 52 207 0.0 0.0 0.00 0.04 0.00 1 1004.6
20260506073001 51 207 0.0 0.0 0.00 0.04 0.00 1 1004.5
20260506071551 50 207 0.0 0.0 0.00 0.04 0.00 1 1004.4
20260506061521 48 207 0.0 0.0 0.00 0.08 0.00 1 1004.8
20260506044556 46 207 0.0 2.0 0.00 0.20 0.00 1 1004.8
20260506043053 45 207 0.0 0.0 0.00 0.20 0.00 1 1004.7
20260506041546 45 207 0.0 0.0 0.00 0.20 0.00 1 1004.5
20260506040042 45 207 0.0 0.0 0.00 0.20 0.00 1 1004.6
20260506034550 46 207 0.0 0.0 0.00 0.22 0.00 1 1004.6
20260506033033 46 207 0.0 0.0 0.00 0.22 0.00 1 1004.8
20260506031542 46 207 0.0 0.0 0.00 0.22 0.00 1 1005.0
20260506030029 47 207 0.0 0.0 0.00 0.22 0.00 1 1005.3
20260506024527 47 207 0.0 0.0 0.00 0.24 0.00 1 1005.4
20260506023016 47 207 0.0 0.0 0.00 0.24 0.00 1 1005.6
20260506021512 47 207 0.0 0.0 0.00 0.24 0.00 1 1005.8
20260506020012 48 207 0.0 0.0 0.00 0.24 0.00 1 1005.8
20260506014504 48 207 0.0 0.0 0.00 0.24 0.00 1 1005.8
20260506013110 49 207 0.0 0.0 0.00 0.24 0.00 1 1006.1
20260506011559 49 207 0.0 0.0 0.00 0.24 0.00 1 1006.2
20260506010108 50 207 0.0 0.0 0.00 0.24 0.00 1 1006.4
20260506004545 50 207 1.0 3.0 0.00 0.24 0.00 1 1006.3
20260506003041 50 207 0.0 0.0 0.00 0.24 0.00 1 1006.8
20260506001538 50 207 0.0 0.0 0.00 0.24 0.00 1 1007.2
20260506000033 51 207 0.0 0.0 0.00 0.24 0.00 1 1007.3
20260505234528 51 207 0.0 0.0 0.00 0.24 0.00 1 1007.2
20260505233023 51 207 0.0 0.0 0.00 0.24 0.00 1 1007.4
20260505231519 51 207 0.0 0.0 0.00 0.24 0.00 1 1007.6
20260505230023 51 207 0.0 0.0 0.00 0.24 0.00 1 1007.7
20260505224510 51 207 0.0 2.0 0.00 0.24 0.00 1 1007.8
20260505223005 51 207 0.0 0.0 0.00 0.24 0.00 1 1007.7
20260505221502 52 207 0.0 0.0 0.00 0.24 0.00 1 1007.5
20260505220057 52 207 0.0 0.0 0.00 0.24 0.00 1 1007.6
20260505214610 52 207 0.0 0.0 0.00 0.24 0.24 1 1007.6
20260505213048 52 207 0.0 0.0 0.00 0.24 0.24 1 1007.7
20260505211547 52 207 0.0 0.0 0.00 0.24 0.24 1 1007.7
20260505210040 52 207 0.0 0.0 0.00 0.24 0.24 1 1007.8
20260505204535 52 207 0.0 0.0 0.00 0.24 0.24 1 1007.8